カタログに戻る

TJS-13

運用中科学HEO
NORAD 62188·PAYLOAD·🇨🇳 China

打ち上げ Dec 3, 2024 から Xichang Satellite Launch Center

Loading…

次のパス (今後24時間)

TLE

最新Source: Space-Track

元期: Sep 11, 2026, 03:14 UTC

1 62188U 24227A   26254.13520644  .00000491  00000-0  00000-0 0  9990
2 62188  63.8321  28.5942 6976807 269.4161  17.4901  2.00616877 12970

AllMySatでTJS-13をリアルタイム追跡

Download on the App Store